Probability
0 0 0 0 0 0 0 0 0 0 0 0 0 0 0 0 0 0 0 0 0 0 0 0 0 0 0 0 0 0 0 0 0 0 0 0 0 0 0 0 0 0 0 0
0 0 0 0 0 0 0 0 0 0 0 0 0 0 0 0 0 0 0 0 0 0 0 0 0 0 0 0 0 0 0 0 0 0 0 0 0 0 0 0 0 0 0 0
0 0 0 0 0 0 0 0 0 0 0 0 0 0 0 0 0 0 0 0 0 0 0 0 0 0 0 0 0 0 0 0 0 0 0 0 0 0 0 0 0 0 0 0
0 0 0 0 0 0 0 0 0 0 0 0 0 0 0 0 0 0 0 0 0 0 0 0 0 0 0 0 0 0 0 0 0 0 0 0 0 0 0 0 0 0 0 0
0 0 0 0 0 0 0 0 0 0 0 0 0 0 0 0 0 0 0 0 0 0 0 0 0 0 0 0 0 0 0 0 0 0 0 0 0 0 0 0 0 0 0 0
0 0 0 0 0 0 0 0 0 0 0 0 0 0 0 0 0 0 0 0 0 0 0 0 0 0 0 0 0 0 0 0 0 0 0 0 0 0 0 0 0 0 0 0
0 0 0 0 0 0 0 0 0 0 0 0 0 0 0 0 0 0 0 0 0 0 0 0 0 0 0 0 0 0 0 0 0 0 0 0 0 0 0 0 0 0 0 0
0 0 0 0 0 0 0 0 0 0 0 0 0 0 0 0 0 0 0 0 0 0 0 0 0 0 0 0 0 0 0 0 0 0 0 0 0 0 0 0 0 0 0 0
0 0 0 0 0 0 0 0 0 0 0 0 0 0 0 0 0 0 0 0 0 0 0 0 0 0 0 0 0 0 0 0 0 0 0 0 0 0 0 0 0 0 0 0
0 0 0 0 0 0 0 0 0 0 0 0 0 0 0 0 0 0 0 0 0 0 0 0 0 0 0 0 0 0 0 0 0 0 0 0 0 0 0 0 0 0 0 0
0 0 0 0 0 0 0 0 0 0 0 0 0 0 0 0 0 0 0 0 0 0 0 0 0 0 0 0 0 0 0 0 0 0 0 0 0 0 0 0 0 0 0 0
0 0 0 0 0 0 0 0 0 0 0 0 0 0 0 0 0 0 0 0 0 0 0 0 0 0 0 0 0 0 0 0 0 0 0 0 0 0 0 0 0 0 0 0
0 0 0 0 0 0 0 0 0 0 0 0 0 0 0 0 0 0 0 0 0 0 0 0 0 0 0 0 0 0 0 0 0 0 0 0 0 0 0 0 0 0 0 0
0 0 0 0 0 0 0 0 0 0 0 0 0 0 0 0 0 0 0 0 0 0 0 0 0 0 0 0 0 0 0 0 0 0 0 0 0 0 0 0 0 0 0 0
0 0 0 0 0 0 0 0 0 0 0 0 0 0 0 0 0 0 0 0 0 0 0 0 0 0 0 0 0 0 0 0 0 0 0 0 0 0 0 0 0 0 0 0
0 0 0 0 0 0 0 0 0 0 0 0 0 0 0 0 0 0 0 0 0 0 0 0 0 0 0 0 0 0 0 0 0 0 0 0 0 0 0 0 0 0 0 0
0 0 0 0 0 0 0 0 0 0 0 0 0 0 0 0 0 0 0 0 0 0 0 0 0 0 0 0 0 0 0 0 0 0 0 0 0 0 0 0 0 0 0 0
0 0 0 0 0 0 0 0 0 0 0 0 0 0 0 0 0 0 0 0 0 0 0 0 0 0 0 0 0 0 0 0 0 0 0 0 0 0 0 0 0 0 0 0
0 0 0 0 0 0 0 0 0 0 0 0 0 0 0 0 0 0 0 0 0 0 0 0 0 0 0 0 0 0 0 0 0 0 0 0 0 0 0 0 0 0 0 0
0 0 0 0 0 0 0 0 0 0 0 0 0 0 0 0 0 0 0 0 0 0 0 0 0 0 0 0 0 0 0 0 0 0 0 0 0 0 0 0 0 0 0 0
0 0 0 0 0 0 0 0 0 0 0 0 0 0 0 0 0 0 0 0 0 0 0 0 0 0 0 0 0 0 0 0 0 0 0 0 0 0 0 0 0 0 0 0
0 0 0 0 0 0 0 0 0 0 0 0 0 0 0 0 0 0 0 0 0 0 0 0 0 0 0 0 0 0 0 0 0 0 0 0 0 0 0 0 0 0 0 0
0 0 0 0 0 0 0 0 0 0 0 0 0 0 0 0 0 0 0 0 0 0 0 0 0 0 0 0 0 0 0 0 0 0 0 0 0 0 0 0 0 0 0 0
0 0 0 0 0 0 0 0 0 0 0 0 0 0 0 0 0 0 0 0 0 0 0 0 0 0 0 0 0 0 0 0 0 0 0 0 0 0 0 0 0 0 0 0
0 0 0 0 0 0 0 0 0 0 0 0 0 0 0 0 0 0 0 0 0 0 0 0 0 0 0 0 0 0 0 0 0 0 0 0 0 0 0 0 0 0 0 0
0 0 0 0 0 0 0 0 0 0 0 0 0 0 0 0 0 0 0 0 0 0 0 0 0 0 0 0 0 0 0 0 0 0 0 0 0 0 0 0 0 0 0 0
Wind_Speed
5 9 14 16 10 6 11 10 8 5 2 5 9 12 12 7 8 10 10 9 9 10 7 7 9 11 12 14 15 16 16 15 12 10 9 9 9 8 7 7 9 11 10 11
8 13 9 9 9 9 10 10 7 3 2 3 5 10 11 9 9 10 10 10 9 8 7 6 7 8 12 14 16 16 16 15 15 12 10 8 8 7 8 7 9 11 11 11
13 6 11 10 10 10 6 8 9 6 4 1 4 8 8 5 4 6 8 8 8 7 8 6 5 7 9 11 13 13 15 15 15 14 9 5 5 4 5 8 8 10 11 11
7 6 9 12 11 10 8 4 8 8 7 3 2 6 4 3 5 6 6 5 4 4 4 3 3 3 5 7 8 11 12 13 13 13 11 12 9 10 10 7 7 8 10 10
9 9 10 13 11 8 6 7 7 5 4 2 3 5 6 2 6 6 3 2 0 1 1 2 2 1 1 1 4 6 9 10 10 12 12 12 11 9 6 5 6 7 6 8
4 3 4 6 5 7 13 9 7 4 2 6 5 7 7 5 6 3 3 2 2 2 2 3 4 4 4 4 3 4 6 6 7 9 10 11 10 9 7 6 5 5 4 5
5 2 2 5 10 5 8 10 5 4 5 7 3 7 10 5 3 3 2 0 2 2 3 5 5 6 7 7 6 6 6 6 5 6 6 6 6 6 6 5 4 4 3 4
13 10 10 7 8 12 11 12 9 9 8 5 3 10 8 2 3 3 3 1 2 3 4 5 6 7 7 8 8 8 8 8 6 5 4 3 2 2 2 2 2 3 3 3
15 9 4 3 2 11 12 7 3 6 3 2 7 7 10 3 4 4 5 6 6 6 6 7 7 8 8 9 9 9 9 9 8 7 6 5 4 2 2 1 1 1 2 3
9 9 4 3 4 4 4 11 6 6 8 6 5 7 6 7 8 7 8 8 8 8 8 8 8 8 8 8 9 9 10 10 9 8 7 5 5 4 3 3 2 2 3 3
5 10 5 4 10 12 8 7 7 7 5 6 6 7 5 7 9 10 10 9 9 9 8 8 7 7 8 8 9 9 9 9 9 8 7 7 6 6 5 4 4 3 4 4
5 8 7 5 1 2 4 10 10 9 8 5 4 5 2 4 6 9 10 9 8 8 8 8 8 8 8 9 9 9 8 8 8 7 7 7 7 6 6 5 5 4 4 4
9 10 9 4 2 4 6 6 7 4 6 7 7 6 3 3 6 8 10 10 9 9 8 8 8 7 8 8 8 8 8 8 7 6 7 7 7 6 6 5 5 5 5 4
7 7 10 16 11 13 11 10 10 9 8 9 12 8 4 8 10 11 11 11 11 9 8 8 8 7 7 7 7 7 7 7 6 6 7 8 7 6 6 5 5 5 5 5
6 7 6 3 5 11 12 16 17 17 18 15 14 13 11 15 16 16 14 13 12 10 9 8 8 7 7 7 7 7 7 6 6 6 7 7 6 6 6 6 6 6 5 6
6 7 7 3 4 6 7 15 21 22 19 17 10 12 6 9 9 12 14 15 14 13 11 9 8 7 7 6 6 6 6 6 6 7 7 6 6 6 6 6 6 6 6 6
9 9 8 6 5 4 9 16 21 17 14 16 22 15 7 10 15 18 18 18 16 14 13 11 9 8 6 5 5 6 5 5 5 5 5 5 6 6 6 7 7 7 7 7
11 9 5 8 7 12 11 6 14 17 17 17 9 7 15 16 14 12 14 16 15 14 13 11 9 8 6 5 5 5 4 4 4 4 5 5 6 6 6 6 7 7 7 7
6 9 7 7 9 9 6 6 11 14 16 15 16 10 8 6 6 4 8 12 13 13 11 10 8 8 7 5 4 4 4 3 4 4 5 5 5 6 7 7 8 7 7 8
4 5 7 7 10 15 9 7 7 7 11 10 15 14 13 14 11 11 12 13 13 12 10 9 8 8 6 5 3 3 3 3 4 4 5 5 5 6 7 8 8 7 7 8
10 7 10 9 10 10 3 5 10 12 10 5 12 14 17 16 7 10 17 14 13 12 11 9 8 7 5 4 3 3 3 3 4 5 5 6 6 6 7 7 7 7 8 8
14 10 10 9 10 11 8 11 13 6 2 4 5 8 10 7 11 16 16 15 14 12 10 8 7 6 5 4 3 3 3 4 4 5 6 6 7 6 6 7 8 7 8 8
10 9 7 9 7 1 9 7 3 4 5 5 6 8 12 12 13 15 14 14 12 11 9 7 6 6 5 4 3 2 3 5 5 6 6 7 7 7 7 7 8 8 7 7
4 1 5 5 5 3 4 2 2 3 3 5 7 12 14 14 16 15 14 11 10 8 7 5 5 4 3 3 3 3 4 5 5 6 7 7 7 8 7 6 6 7 7 7
7 8 5 5 2 0 4 7 5 4 5 8 8 8 12 16 16 14 11 10 9 7 5 5 4 3 2 3 3 4 5 5 6 6 7 7 7 8 8 7 7 8 8 8
6 9 10 8 8 8 7 8 9 10 10 11 11 9 7 10 13 11 10 8 8 7 5 4 3 2 1 3 4 4 4 4 5 7 7 6 6 7 7 8 9 11 12 15
Wind_Direction
162 186 193 187 190 178 170 175 183 173 131 203 231 252 258 251 251 253 249 244 243 248 251 236 228 220 217 217 216 215 212 209 204 203 206 210 215 214 215 216 214 213 212 209
167 204 182 137 121 124 152 170 168 126 91 217 253 264 263 253 245 248 252 251 252 256 251 240 232 219 215 215 215 215 215 211 206 208 209 212 215 217 217 212 214 215 214 210
188 166 145 139 143 132 160 177 170 152 130 106 291 261 240 235 240 250 250 256 262 266 272 270 246 228 218 218 216 214 215 213 210 210 208 199 206 206 212 218 217 217 217 214
171 145 157 158 171 168 185 175 145 142 164 178 256 264 249 236 269 245 236 236 255 270 275 284 272 243 225 226 221 219 216 214 211 208 208 208 211 220 225 225 224 220 217 221
175 163 165 178 179 156 130 115 116 126 139 174 205 250 263 257 252 234 202 171 101 16 356 357 5 5 4 229 206 205 205 208 208 207 210 214 222 229 233 228 231 231 225 227
112 158 173 152 107 121 128 105 84 83 144 235 204 224 258 219 218 192 147 108 61 43 56 64 65 67 66 74 106 148 170 184 195 200 207 214 221 224 226 225 231 235 235 236
133 144 118 129 115 123 162 146 144 172 206 227 149 228 248 239 226 231 234 329 48 65 85 81 74 71 68 71 82 103 120 126 150 174 190 204 216 223 230 235 240 242 244 246
170 185 191 183 163 166 185 181 174 185 202 192 176 233 251 269 277 256 241 210 125 104 96 85 77 76 74 73 78 89 97 98 106 121 132 143 168 191 208 231 245 252 263 270
182 173 111 159 153 153 163 187 127 118 102 184 219 253 282 253 232 191 168 155 135 115 104 96 85 79 78 76 74 82 90 89 88 93 98 96 94 93 84 49 350 313 307 308
149 143 142 145 118 21 180 144 142 163 163 212 227 233 233 208 193 166 157 151 136 124 112 101 90 84 79 79 81 80 81 83 84 85 84 82 81 77 74 67 41 2 339 327
124 126 134 169 193 173 145 169 171 166 192 189 219 235 217 207 177 168 161 151 141 132 121 110 100 92 88 83 81 80 80 81 80 81 83 82 76 70 67 57 37 11 351 338
128 119 142 184 83 291 207 182 166 178 199 204 216 248 91 212 178 165 156 146 138 131 124 116 110 104 95 87 79 76 74 72 71 76 78 74 69 64 59 48 32 13 358 345
142 128 117 130 189 188 215 199 191 147 138 172 198 236 86 161 165 163 158 152 147 141 133 124 115 104 94 87 81 75 70 68 67 72 75 70 60 52 47 36 23 12 360 348
127 149 181 194 194 179 193 193 185 169 189 204 222 223 186 178 174 171 166 160 154 148 143 132 120 108 97 89 83 79 70 63 62 65 65 59 46 37 30 22 14 7 358 350
149 180 192 185 141 164 190 193 191 206 215 217 223 215 204 191 184 176 167 161 159 157 153 144 133 122 111 98 86 77 70 57 53 58 53 45 35 27 20 12 2 355 350 343
167 171 155 143 160 172 190 199 201 213 221 227 225 222 206 185 176 171 173 174 173 169 162 152 140 128 115 100 88 78 66 53 48 51 43 29 20 14 8 358 347 342 339 334
164 144 154 176 143 122 231 210 204 212 215 215 229 228 160 182 189 190 188 186 180 172 164 156 146 133 117 101 87 76 65 55 50 46 34 19 9 2 354 344 339 337 332 328
165 148 139 137 145 211 229 193 198 210 221 215 221 191 187 200 196 195 190 183 175 168 161 153 143 132 118 103 88 79 69 59 50 38 23 10 359 348 339 334 329 326 322 318
168 150 141 164 198 237 256 203 188 199 230 217 219 207 183 128 119 187 188 179 170 161 152 143 135 125 117 103 93 90 76 60 44 23 7 354 343 333 329 324 322 319 315 310
165 162 156 175 202 225 229 173 169 158 242 207 205 201 174 158 192 205 170 159 149 142 137 132 126 119 111 98 92 89 70 47 25 359 342 332 327 320 314 311 310 308 305 299
175 179 193 195 215 241 200 146 149 184 232 181 196 195 181 191 209 137 142 143 140 136 132 129 125 115 102 91 86 78 56 27 357 337 325 321 319 311 302 301 298 300 298 297
182 184 192 190 210 229 153 156 184 201 108 159 171 171 165 127 114 130 138 138 138 133 130 128 121 110 93 75 68 59 29 1 344 330 321 316 312 306 301 297 296 294 293 293
195 187 178 195 215 116 167 186 175 139 161 172 159 149 141 133 138 138 139 139 136 133 127 119 117 112 93 68 52 32 0 349 336 323 313 308 305 299 295 293 294 293 287 285
215 141 155 192 225 202 192 189 182 181 172 158 152 149 149 146 147 144 142 139 135 127 123 120 119 114 99 63 42 14 344 340 324 312 308 305 303 301 297 289 283 281 280 280
176 167 174 204 201 305 250 221 192 155 131 131 132 143 150 145 147 146 142 139 135 126 118 111 110 104 75 23 1 354 344 335 319 308 301 301 297 297 298 289 278 278 270 264
185 179 183 205 191 187 206 192 174 164 163 155 142 132 132 143 141 135 134 133 130 126 119 114 102 87 14 342 325 330 334 329 317 307 305 302 299 297 293 294 291 275 272 277